Hourly Weather Smoniowice

Today, 17 May, Monday

Time Temperature Precipitation Wind Pressure Humidity
00:00 +9°C° 0 mm 1 mps 732 mmHg 89%
01:00 +9°C° 0 mm 1 mps 732 mmHg 89%
02:00 +9°C° 0 mm 1 mps 732 mmHg 89%
03:00 +9°C° 0 mm 1 mps 731 mmHg 89%
04:00 +8°C° 0 mm 1 mps 731 mmHg 90%
05:00 +9°C° 0 mm 2 mps 731 mmHg 86%
06:00 +12°C° 0 mm 2 mps 731 mmHg 83%
07:00 +13°C° 0 mm 2 mps 731 mmHg 80%
08:00 +15°C° 0 mm 2 mps 731 mmHg 75%
09:00 +16°C° 0 mm 3 mps 731 mmHg 70%
10:00 +17°C° 0 mm 3 mps 731 mmHg 65%
11:00 +17°C° 0.1 mm 3 mps 731 mmHg 66%
12:00 +18°C° 0.1 mm 2 mps 730 mmHg 67%
13:00 +18°C° 0.1 mm 2 mps 730 mmHg 68%
14:00 +17°C° 0.5 mm 2 mps 730 mmHg 71%
15:00 +17°C° 0.5 mm 2 mps 730 mmHg 74%
16:00 +17°C° 0.5 mm 3 mps 729 mmHg 77%
17:00 +14°C° 0.8 mm 3 mps 730 mmHg 83%
18:00 +13°C° 0.8 mm 4 mps 730 mmHg 89%
19:00 +11°C° 0.8 mm 4 mps 730 mmHg 94%
20:00 +11°C° 1.4 mm 4 mps 730 mmHg 95%
21:00 +11°C° 1.4 mm 4 mps 730 mmHg 96%
22:00 +10°C° 1.4 mm 4 mps 730 mmHg 97%
23:00 +10°C° 1.3 mm 4 mps 730 mmHg 96%

Tomorrow, 18 May, Tuesday

Time Temperature Precipitation Wind Pressure Humidity
00:00 +9°C° 1.3 mm 5 mps 730 mmHg 95%
01:00 +9°C° 1.3 mm 5 mps 731 mmHg 94%
02:00 +8°C° 1 mm 5 mps 731 mmHg 94%
03:00 +8°C° 1 mm 5 mps 731 mmHg 94%
04:00 +8°C° 1 mm 5 mps 731 mmHg 94%
05:00 +8°C° 0.9 mm 5 mps 732 mmHg 94%
06:00 +8°C° 0.9 mm 5 mps 732 mmHg 95%
07:00 +8°C° 0.9 mm 5 mps 732 mmHg 95%
08:00 +8°C° 0.4 mm 5 mps 733 mmHg 94%
09:00 +9°C° 0.4 mm 6 mps 733 mmHg 93%
10:00 +9°C° 0.4 mm 6 mps 733 mmHg 92%
11:00 +10°C° 0.2 mm 6 mps 733 mmHg 86%
12:00 +11°C° 0.2 mm 6 mps 733 mmHg 81%
13:00 +14°C° 0.2 mm 7 mps 733 mmHg 76%
14:00 +14°C° 0.2 mm 6 mps 733 mmHg 76%
15:00 +14°C° 0.2 mm 6 mps 733 mmHg 76%
16:00 +14°C° 0.2 mm 6 mps 733 mmHg 76%
17:00 +13°C° 0.1 mm 5 mps 734 mmHg 79%
18:00 +12°C° 0.1 mm 4 mps 734 mmHg 82%
19:00 +11°C° 0.1 mm 4 mps 734 mmHg 85%
20:00 +10°C° 0 mm 3 mps 734 mmHg 88%
21:00 +9°C° 0 mm 3 mps 735 mmHg 90%
22:00 +9°C° 0 mm 3 mps 735 mmHg 93%
23:00 +8°C° 0 mm 3 mps 735 mmHg 93%

Day after tomorrow, 19 May, Wednesday

Time Temperature Precipitation Wind Pressure Humidity
00:00 +7°C° 0 mm 4 mps 735 mmHg 94%
01:00 +7°C° 0 mm 4 mps 735 mmHg 94%
02:00 +6°C° 0 mm 4 mps 736 mmHg 95%
03:00 +7°C° 0 mm 3 mps 736 mmHg 95%
04:00 +5°C° 0 mm 3 mps 736 mmHg 96%
05:00 +7°C° 0 mm 4 mps 736 mmHg 92%
06:00 +8°C° 0 mm 4 mps 736 mmHg 89%
07:00 +10°C° 0 mm 5 mps 737 mmHg 85%
08:00 +11°C° 0.1 mm 4 mps 737 mmHg 82%
09:00 +12°C° 0.1 mm 4 mps 737 mmHg 78%
10:00 +13°C° 0.1 mm 4 mps 737 mmHg 74%
11:00 +13°C° 0.2 mm 4 mps 737 mmHg 74%
12:00 +13°C° 0.2 mm 4 mps 737 mmHg 74%
13:00 +13°C° 0.2 mm 4 mps 737 mmHg 74%
14:00 +13°C° 0.2 mm 4 mps 737 mmHg 74%
15:00 +13°C° 0.2 mm 4 mps 737 mmHg 75%
16:00 +13°C° 0.2 mm 4 mps 737 mmHg 75%
17:00 +12°C° 0.3 mm 3 mps 737 mmHg 79%
18:00 +11°C° 0.3 mm 3 mps 737 mmHg 83%
19:00 +10°C° 0.3 mm 3 mps 737 mmHg 87%
20:00 +10°C° 0.2 mm 3 mps 737 mmHg 90%
21:00 +9°C° 0.2 mm 3 mps 737 mmHg 92%
22:00 +9°C° 0.2 mm 3 mps 737 mmHg 94%
23:00 +9°C° 0.2 mm 3 mps 737 mmHg 95%

20 May, Thursday

Time Temperature Precipitation Wind Pressure Humidity
00:00 +8°C° 0.2 mm 4 mps 737 mmHg 96%
01:00 +7°C° 0.2 mm 4 mps 737 mmHg 97%
02:00 +7°C° 0.6 mm 4 mps 737 mmHg 97%
03:00 +7°C° 0.6 mm 4 mps 737 mmHg 97%
04:00 +7°C° 0.6 mm 4 mps 737 mmHg 97%
05:00 +7°C° 0.7 mm 4 mps 738 mmHg 95%
06:00 +7°C° 0.7 mm 4 mps 738 mmHg 94%
07:00 +7°C° 0.7 mm 4 mps 738 mmHg 93%
08:00 +8°C° 0.1 mm 4 mps 739 mmHg 90%
09:00 +8°C° 0.1 mm 4 mps 739 mmHg 87%
10:00 +9°C° 0.1 mm 5 mps 739 mmHg 84%
11:00 +10°C° 0.1 mm 5 mps 739 mmHg 76%
12:00 +12°C° 0.1 mm 5 mps 739 mmHg 68%
13:00 +13°C° 0.1 mm 5 mps 739 mmHg 60%
14:00 +13°C° 0 mm 5 mps 739 mmHg 63%
15:00 +13°C° 0 mm 5 mps 739 mmHg 65%
16:00 +13°C° 0 mm 4 mps 739 mmHg 68%
17:00 +12°C° 0.1 mm 4 mps 739 mmHg 73%
18:00 +11°C° 0.1 mm 4 mps 740 mmHg 78%
19:00 +10°C° 0.1 mm 4 mps 740 mmHg 83%
20:00 +10°C° 0.1 mm 4 mps 740 mmHg 85%
21:00 +8°C° 0.1 mm 4 mps 740 mmHg 88%
22:00 +8°C° 0.1 mm 4 mps 741 mmHg 90%
23:00 +7°C° 0 mm 4 mps 741 mmHg 92%

21 May, Friday

Time Temperature Precipitation Wind Pressure Humidity
00:00 +7°C° 0 mm 4 mps 741 mmHg 93%
01:00 +6°C° 0 mm 4 mps 742 mmHg 95%
02:00 +5°C° 0 mm 3 mps 742 mmHg 95%
03:00 +5°C° 0 mm 3 mps 742 mmHg 95%
04:00 +4°C° 0 mm 3 mps 742 mmHg 95%
05:00 +5°C° 0 mm 3 mps 742 mmHg 90%
06:00 +8°C° 0 mm 3 mps 743 mmHg 84%
07:00 +8°C° 0 mm 4 mps 743 mmHg 78%
08:00 +10°C° 0.1 mm 4 mps 743 mmHg 73%
09:00 +12°C° 0.1 mm 4 mps 742 mmHg 68%
10:00 +13°C° 0.1 mm 4 mps 742 mmHg 64%
11:00 +13°C° 0.1 mm 3 mps 742 mmHg 63%
12:00 +13°C° 0.1 mm 3 mps 742 mmHg 62%
13:00 +14°C° 0.1 mm 3 mps 741 mmHg 61%
14:00 +14°C° 0 mm 3 mps 741 mmHg 60%
15:00 +15°C° 0 mm 2 mps 741 mmHg 60%
16:00 +16°C° 0 mm 2 mps 740 mmHg 60%
17:00 +15°C° 0 mm 2 mps 740 mmHg 64%
18:00 +13°C° 0 mm 2 mps 740 mmHg 69%
19:00 +12°C° 0 mm 2 mps 739 mmHg 73%
20:00 +12°C° 0 mm 2 mps 739 mmHg 76%
21:00 +10°C° 0 mm 2 mps 739 mmHg 78%
22:00 +9°C° 0 mm 2 mps 739 mmHg 80%
23:00 +9°C° 0 mm 2 mps 739 mmHg 80%

22 May, Saturday

Time Temperature Precipitation Wind Pressure Humidity
00:00 +9°C° 0 mm 2 mps 738 mmHg 80%
01:00 +8°C° 0 mm 2 mps 738 mmHg 80%
02:00 +8°C° 0 mm 2 mps 737 mmHg 81%
03:00 +8°C° 0 mm 2 mps 737 mmHg 82%
04:00 +7°C° 0 mm 2 mps 737 mmHg 83%
05:00 +9°C° 0 mm 2 mps 737 mmHg 79%
06:00 +11°C° 0 mm 3 mps 737 mmHg 75%
07:00 +12°C° 0 mm 3 mps 737 mmHg 72%
08:00 +14°C° 0 mm 3 mps 737 mmHg 67%
09:00 +16°C° 0 mm 3 mps 737 mmHg 62%
10:00 +18°C° 0 mm 3 mps 737 mmHg 57%
11:00 +19°C° 0 mm 2 mps 736 mmHg 55%
12:00 +19°C° 0 mm 2 mps 736 mmHg 53%
13:00 +21°C° 0 mm 1 mps 736 mmHg 51%
14:00 +19°C° 0.4 mm 2 mps 736 mmHg 60%
15:00 +17°C° 0.4 mm 2 mps 735 mmHg 68%
16:00 +16°C° 0.4 mm 3 mps 735 mmHg 77%
17:00 +14°C° 0.5 mm 3 mps 735 mmHg 82%
18:00 +13°C° 0.5 mm 3 mps 735 mmHg 88%
19:00 +11°C° 0.5 mm 3 mps 736 mmHg 93%
20:00 +11°C° 0.6 mm 3 mps 736 mmHg 94%
21:00 +10°C° 0.6 mm 3 mps 736 mmHg 95%
22:00 +10°C° 0.6 mm 3 mps 736 mmHg 96%
23:00 +9°C° 1 mm 3 mps 737 mmHg 96%
Show more

We Need Your Consent

Meteoprog and our Service Providers may store and access personal data such as cookies, device identifiers or other similar technologies on your device and process such data to personalise content and ads, as well as provide social media features and to analyse the traffic.

  • Store and/or access information on your device

    Cookies, device identifiers or other information can be stored or accessed on your device for the purposes indicated above.

  • Personalised ads and content, ad and content measurement, audience insights, and products development

    Ads and content can be personalised based on a profile. More data can be added to better personalise ads and content. Ad and content performance can be measured. Insights about the audience who saw the ads and content can be derived. Such data can be used to develop or improve user’s experience, systems and software.

By clicking ‘I Agree’ you will allow the use of indicated cookies, device identifiers, web beacons or other similar technologies. Your settings can be changed in the browser on your device.

For certain purposes, legitimate interests may be relied on, rather than consent. You can read more about this in our Privacy and Cookie Policy.